Regional Weather Roundup
Issued by NWS

Home | Current Version | Previous Version | Text Only | Print | Product List | Glossary On
Versions: 1 2 3 4 5 6 7 8 9 10 11 12 13 14 15 16 17 18 19 20 21 22 23 24 25 26 27 28 29 30 31 32 33 34 35 36 37 38 39 40 41 42 43 44 45 46 47 48 49 50
000
ASUS43 KLSX 280807
RWRMO

WEATHER SUMMARY FOR MISSOURI
NATIONAL WEATHER SERVICE SPRINGFIELD MO
300 AM CDT TUE APR 28 2015

NOTE: "FAIR" INDICATES FEW OR NO CLOUDS BELOW 12,000 FEET WITH NO
       SIGNIFICANT WEATHER AND/OR OBSTRUCTIONS TO VISIBILITY.
       CURRENT SKY AND/OR WEATHER CONDITIONS ARE NOT AVAILABLE FOR
       CHILLICOTHE AND FARMINGTON.

MOZ001>031-035>038-043-044-053-054-280900-
...NORTHERN AND WESTERN MISSOURI...

CITY           SKY/WX    TMP DP  RH WIND       PRES   REMARKS
KANSAS CTY INT PTCLDY    48  36  63 NE7       30.13F
KANSAS C DTWN  MOCLDY    50  40  68 CALM      30.13S
LEE`S SUMMIT   MOCLDY    49  38  65 N5        30.13S
ST JOSEPH      PTCLDY    43  36  76 CALM      30.15S
CHILLICOTHE      N/A     45  38  76 CALM      30.15S
KIRKSVILLE     CLEAR     41  39  93 NW3       30.14F

$$
MOZ066>068-077>081-088>096-101>105-280900-
...SOUTHWEST MISSOURI...

CITY           SKY/WX    TMP DP  RH WIND       PRES   REMARKS
SPRINGFIELD    PTCLDY    49  36  61 NE6       30.06F
JOPLIN         MOCLDY    50  38  63 NE6       30.06F

$$
MOZ032>034-039>042-045>050-055>058-069>072-280900-
...CENTRAL MISSOURI...

CITY           SKY/WX    TMP DP  RH WIND       PRES   REMARKS
COLUMBIA       PTCLDY    50  37  61 NE5       30.11S
JEFFERSON CITY FAIR      43  38  82 CALM      30.11F
ROLLA          CLEAR     42  35  76 NE3       30.08S
SEDALIA        PTCLDY    48  36  63 NE5       30.12F
WHITEMAN AFB   PTCLDY    43  37  79 CALM      30.10F
WARRENSBURG    MOCLDY    45  37  76 N5        30.12S
OSAGE BEACH    CLEAR     46  36  66 NE3       30.10S

$$
MOZ051-052-059>065-280900-
...EAST CENTRAL MISSOURI...

CITY           SKY/WX    TMP DP  RH WIND       PRES   REMARKS
ST LOUIS INTL  PTCLDY    50  37  61 CALM      30.11F
SPIRIT OF STL  CLEAR     39  38  96 CALM      30.11F
ST CHARLES     CLEAR     47  38  71 W3        30.11F

$$
MOZ072>076-082>087-097>100-106>115-280900-
...SOUTH CENTRAL AND SOUTHEAST MISSOURI...

CITY           SKY/WX    TMP DP  RH WIND       PRES   REMARKS
CAPE GIRARDEAU CLEAR     48  40  73 E3        30.04F
FARMINGTON     CLEAR     45  37  76 NE5       30.11S
POPLAR BLUFF   PTCLDY    51  40  65 NE8       30.02F
WEST PLAINS    PTCLDY    47  36  65 NE8       30.05F

$$


USA.gov is the U.S. government's official web portal to all federal, state and local government web resources and services.